Location: Unspecified
(0.0000°N, 0.0000°E)
Time: 10:00:07
(UTC+00:00)

MIDAS 4 DEB - Pass Details

Date: 11 November 2025
Orbit: 3271 x 3959 km, 95.8° (Epoch: 26 July)

Event Time Altitude Azimuth Distance (km) Brightness Sun altitude
Exits shadow 18:34:09 10° 90° (E) 6,758 ? -11.9°
Reaches altitude 10° 18:34:36 10° 91° (E) 6,740 ? -12.0°
Maximum altitude 18:39:44 12° 108° (ESE) 6,680 ? -13.2°
Drops below altitude 10° 18:44:54 10° 125° (SE) 6,900 ? -14.5°
Sets 18:55:25 0° 152° (SSE) 8,061 ? -17.0°
